Regional Weather Roundup
Issued by NWS Goodland, KS

Home | Current Version | Previous Version | Graphics & Text | Print | Product List | Glossary On
Versions: 1 2 3 4 5 6 7 8 9 10 11 12 13 14 15 16 17 18 19 20 21 22 23 24 25 26 27 28 29 30 31 32 33 34 35 36 37 38 39 40 41 42 43 44 45 46 47 48 49 50
000
ASUS43 KGLD 242208
RWRGLD

GOODLAND FORECAST AREA HOURLY WEATHER ROUNDUP
NATIONAL WEATHER SERVICE GOODLAND KS
400 PM MDT SUN JUL 24 2016

...OFFICIAL OBSERVATIONS...

CITY           SKY/WX    TMP DP  RH WIND       PRES   REMARKS
GOODLAND KS    LGT RAIN  91  58  32 E12       30.06F
HILL CITY KS   SUNNY     90  63  40 E17       30.02F
IMPERIAL NEB   SUNNY     88  55  32 E15       30.08F
MCCOOK NEB     SUNNY     88  59  37 E17G26    30.04S
AKRON CO       SUNNY     85  58  39 SE18G24   30.12F
BURLINGTON CO  SUNNY     91  57  31 E18G26    30.09F
LIMON CO       CLOUDY    85  56  37 SE14      30.14F
$$

...UNOFFICIAL OBSERVATIONS...

CITY           SKY/WX    TMP DP  RH WIND       PRES   REMARKS
COLBY KS       SUNNY     91  63  38 E17       30.06F
LENORA KS        N/A     89  32  13 MISG        N/A
NORTON KS      SUNNY     88  46  23 E15       30.03F
SHARON SPRINGS   N/A     94  63  35 E8G16       N/A
KIT CARSON CO    N/A     91  62  37 MISG        N/A
YUMA CO          N/A     86  61  42 E15G22      N/A
$$




USA.gov is the U.S. government's official web portal to all federal, state and local government web resources and services.